Regional Weather Roundup
Issued by NWS Cleveland, OH

Home | Current Version | Previous Version | Graphics & Text | Print | Product List | Glossary On
Versions: 1 2 3 4 5 6 7 8 9 10 11 12 13 14 15 16 17 18 19 20 21 22 23 24 25 26 27 28 29 30 31 32 33 34 35 36 37 38 39 40 41 42 43 44 45 46 47 48 49 50
000
ASUS41 KCLE 270002
RWRCLE
OHIO REGIONAL WEATHER ROUNDUP
NATIONAL WEATHER SERVICE CLEVELAND, OH
800 PM EDT SUN APR 26 2015

NOTE: "FAIR" INDICATES FEW OR NO CLOUDS BELOW 12,000 FEET WITH NO
SIGNIFICANT WEATHER AND/OR OBSTRUCTIONS TO VISIBILITY.

OHZ001>008-015>018-024>027-034-035-043-044-270100-
   NORTHWEST OHIO

CITY           SKY/WX    TMP DP  RH WIND       PRES   REMARKS
DEFIANCE       PTCLDY    56  28  34 N13       29.90R
FINDLAY        MOCLDY    54  30  40 NE9       29.87S
TOLEDO EXPRESS CLOUDY    55  28  35 N16       29.89R
TOLEDO EXEC    CLOUDY    53  30  41 NE7       29.90R
LIMA           CLOUDY    54  33  45 NE10      29.87S
$$

OHZ009>014-019>023-028>033-038-089-270100-
   NORTHEAST OHIO

CITY           SKY/WX    TMP DP  RH WIND       PRES   REMARKS
CLE-HOPKINS    PTCLDY    47  31  53 N15       29.91R
CLE-LAKEFRONT  CLEAR     45  35  68 N8        29.88S
CUY CO. ARPT   NOT AVBL
LORAIN-ELYRIA  CLEAR     47  31  53 NE12      29.89S
ASHTABULA      CLOUDY    46  31  55 NW9       29.86S
AKRON-CANTON   PTCLDY    50  29  44 N14       29.85R
WOOSTER        CLEAR     48  30  49 N12       29.87R
MANSFIELD      CLEAR     49  27  42 N13       29.87R
YOUNGSTOWN     MOCLDY    48  31  51 N15       29.84R
$$

OHZ042-051>053-060>062-070>072-077>081-270100-
  SOUTHWEST OHIO

CITY           SKY/WX    TMP DP  RH WIND       PRES   REMARKS
CINC-COVINGTON PTCLDY    55  34  45 N16       29.87R
CINC-LUNKEN    PTCLDY    55  35  47 N9        29.88R
HAMILTON       PTCLDY    55  35  47 N6        29.89R
DAYTON         PTCLDY    53  33  46 NE9       29.89R
WRIGHT-PAT AFB PTCLDY    55  31  41 N12       29.88R
DAYTON GENERAL PTCLDY    53  32  44 N10       29.86R
WILMINGTON     CLEAR     51  32  48 N13       29.86R
$$

OHZ036-037-039>041-045>050-054>059-063>069-073>076-082>088-270100-
  CENTRAL AND SOUTHEAST OHIO

CITY           SKY/WX    TMP DP  RH WIND       PRES   REMARKS
COLUMBUS       PTCLDY    52  30  43 N15       29.85R
OSU AIRPORT    CLEAR     51  29  42 N13       29.86R
BOLTON FIELD   NOT AVBL
RICKENBACK AFB NOT AVBL
NEWARK         CLEAR     53  27  36 N9G21     29.84R
MARION         CLEAR     50  30  46 NE13      29.88R
LANCASTER      CLEAR     54  32  43 N14       29.84R
ZANESVILLE     CLEAR     52  26  36 N14G20    29.82R
NEW PHILLY     CLEAR     54  28  36 N12G20    29.84R
$$



USA.gov is the U.S. government's official web portal to all federal, state and local government web resources and services.